www.pogodaiklimat.ru

Погода и климат >> Архив погоды >> Испания >> Аликанте аэропорт


ПОГОДА в Аликанте аэропорту

  • Прогноз погоды в Аликанте аэропорту
  • Монитор погоды в Аликанте аэропорту

АРХИВ ПОГОДЫ в Аликанте аэропорту

Время (UTC), дата Ветер
(напр.,м/с)
 
Видим.   Явления Облачность Т
(С)
Тd
(С)
f
(%)
Тe
(С)
Тes
(С)
Комфортность P
(гПа)
Po
(гПа)
Тmin
(С)
Tmax
(С)
R
(мм)
R24
(мм)
S
(см)
10 10.08 В 5 н/о н/о +33.0 +19.5 45 +39 +39 очень
душно
1015.9 1012.4
11 10.08 В 6 н/о н/о +33.7 +19.8 44 +40 +40 очень
душно
1015.4 1011.9
12 10.08 В 5 40 км 1/0
[Ci fib]
+33.3 +20.1 46 +40 +49 очень
душно
1015.4 1011.9
13 10.08 В 5 н/о н/о +33.4 +19.5 44 +39 +39 очень
душно
1015.1 1011.6
14 10.08 В 5 н/о н/о +33.8 +18.8 41 +39 +39 очень
душно
1014.8 1011.3
15 10.08 В 5 50 км ясно +31.7 +20.6 52 +39 +44 очень
душно
1014.7 1011.2
16 10.08 В 5 н/о н/о +31.4 +21.6 56 +40 +40 очень
душно
1014.5 1011.0
17 10.08 В 4 н/о н/о +29.9 +24.0 71 +41 +41 опасность
перегрева
1014.2 1010.7
18 10.08 В 3 50 км 3/3 300 м
[St]
+29.1 +24.2 75 +41 +41 опасность
перегрева
1014.1 1010.6 +34.0
19 10.08 СВ 2 н/о н/о +28.3 +23.4 75 +38 +38 очень
душно
1014.1 1010.6
20 10.08 СВ 2 н/о н/о +28.0 +23.2 75 +38 +38 очень
душно
1014.2 1010.7
21 10.08 СВ 2 24 км ясно +28.2 +21.9 69 +36 +36 очень
душно
1014.8 1011.3
22 10.08 ЮВ 2 н/о в посл. час осадки н/о +27.1 +23.1 79 +36 +36 очень
душно
1014.7 1011.2
23 10.08 штиль 0 н/о н/о +26.6 +24.1 86 +37 +37 очень
душно
1014.4 1010.9
00 11.08 штиль 0 15 км ясно +25.5 +22.6 84 +34 +34 очень
душно
1014.7 1011.1 0.0
01 11.08 штиль 0 н/о н/о +25.2 +22.3 84 +33 +33 очень
душно
1014.1 1010.5
02 11.08 С 3 н/о н/о +25.4 +23.3 88 +34 +34 очень
душно
1013.1 1009.5
03 11.08 СВ 3 16 км 5/5 600 м
[Sc Ac und]
+25.5 +23.0 86 +34 +34 очень
душно
1012.5 1008.9
04 11.08 В 3 н/о н/о +25.5 +22.6 84 +34 +34 очень
душно
1012.8 1009.2
05 11.08 штиль 0 н/о н/о +25.8 +23.3 86 +35 +35 очень
душно
1013.2 1009.6
06 11.08 З 1 н/о в посл. час осадки н/о +25.9 +24.1 90 +36 +36 очень
душно
1014.0 1010.4 +25.1 0.0
07 11.08 З 1 н/о в посл. час осадки н/о +26.8 +24.6 88 +38 +38 очень
душно
1013.9 1010.4
08 11.08 З 1 н/о н/о +28.1 +23.9 78 +39 +39 очень
душно
1013.9 1010.4
09 11.08 В 2 21 км 8/8 300 м
[Cu Sc Ac As]
+29.3 +23.0 69 +39 +41 очень
душно
1013.6 1010.1 0.0
10 11.08 ЮВ 4 н/о н/о +30.7 +23.1 64 +41 +41 опасность
перегрева
1013.9 1010.4
11 11.08 ЮВ 5 н/о н/о +31.2 +23.4 63 +42 +42 опасность
перегрева
1013.7 1010.2
12 11.08 ЮВ 5 27 км 3/3 600 м
[Cu med, cong Ac und Cs]
+30.7 +23.6 66 +42 +49 опасность
перегрева
1013.3 1009.8
13 11.08 ЮВ 5 н/о н/о +30.1 +23.4 67 +41 +41 опасность
перегрева
1013.1 1009.6
14 11.08 ЮВ 5 н/о н/о +30.3 +23.5 67 +41 +41 опасность
перегрева
1012.6 1009.1
15 11.08 В 4 27 км 5/5 600 м
[Cu Sc Ac und]
+30.3 +23.4 67 +41 +45 опасность
перегрева
1012.2 1008.7
16 11.08 В 4 н/о н/о +29.7 +23.4 69 +40 +40 очень
душно
1011.7 1008.2
17 11.08 В 3 н/о н/о +29.5 +23.0 68 +39 +39 очень
душно
1011.1 1007.6
18 11.08 ЮВ 3 н/о н/о +28.7 +22.9 71 +38 +38 очень
душно
1011.3 1007.8 +31.9
19 11.08 В 3 н/о н/о +27.5 +23.5 79 +37 +37 очень
душно
1011.8 1008.3
20 11.08 ЮВ 2 н/о н/о +26.8 +23.9 84 +37 +37 очень
душно
1012.7 1009.2
21 11.08 штиль 0 15 км 8/5 300 м
[St Cs]
+26.6 +23.7 84 +36 +36 очень
душно
1013.5 1010.0
22 11.08 штиль 0 н/о н/о +26.6 +23.5 83 +36 +36 очень
душно
1013.3 1009.8
23 11.08 З 2 н/о н/о +26.5 +23.4 83 +36 +36 очень
душно
1012.8 1009.3
00 12.08 З 1 20 км 1/1 600 м
[Cu hum]
+26.6 +23.3 82 +36 +36 очень
душно
1011.9 1008.4
01 12.08 ЮЗ 3 н/о н/о +25.8 +22.7 83 +34 +34 очень
душно
1011.3 1007.7
02 12.08 ЮЗ 4 н/о н/о +27.1 +7.6 29 +27 +27 жарко 1010.8 1007.2
03 12.08 СЗ 4 20 км ясно +28.4 +1.8 18 +26 +26 жарко 1010.4 1006.9
04 12.08 СЗ 3 н/о н/о +27.3 +2.4 20 +26 +26 жарко 1011.1 1007.5
05 12.08 СЗ 4 н/о н/о +26.0 +3.9 24 +25 +25 комфорт 1011.7 1008.1
06 12.08 З 2 40 км 9/6 300 м
[St Ci fib]
+25.9 +4.9 26 +25 +25 комфорт 1012.4 1008.8 +25.4
07 12.08 З 3 н/о н/о +27.9 +10.0 33 +28 +28 жарко 1012.9 1009.3
08 12.08 З 3 н/о н/о +29.7 +14.8 40 +32 +32 душно 1013.2 1009.7
09 12.08 ЮЗ 3 50 км 1/0
[Cs]
+32.0 +6.7 21 +30 +40 жарко 1013.5 1010.0
10 12.08 ЮВ 3 н/о н/о +33.7 +3.9 15 +31 +31 жарко 1013.8 1010.3
11 12.08 ЮВ 6 н/о н/о +32.1 +13.8 33 +33 +33 жарко 1014.2 1010.7
12 12.08 В 7 30 км 3/0
[Cc]
+30.7 +20.0 53 +37 +42 очень
душно
1014.2 1010.7
13 12.08 В 8 н/о н/о +30.5 +19.5 52 +36 +36 очень
душно
1013.9 1010.4
14 12.08 В 9 н/о н/о +30.4 +19.9 53 +37 +37 очень
душно
1013.6 1010.1
15 12.08 В 9 25 км 8/0
[Ac cast Cs]
+29.0 +19.4 56 +35 +35 очень
душно
1013.4 1009.9
16 12.08 В 10 н/о н/о +28.2 +20.7 64 +35 +35 очень
душно
1013.3 1009.8
17 12.08 В 10 н/о н/о +27.9 +21.4 68 +36 +36 очень
душно
1013.0 1009.5
18 12.08 В 8 25 км 6/0
[Ac trans Cs]
+27.5 +22.2 73 +36 +36 очень
душно
1013.3 1009.8 +33.8
19 12.08 В 9 н/о н/о +26.5 +22.3 78 +35 +35 очень
душно
1014.2 1010.6
20 12.08 В 9 н/о н/о +26.1 +22.2 79 +34 +34 очень
душно
1015.2 1011.6
21 12.08 В 8 20 км 1/0
[Ac trans]
+26.1 +21.5 76 +33 +33 очень
душно
1016.1 1012.5
22 12.08 В 7 н/о н/о +26.2 +20.9 73 +33 +33 очень
душно
1016.8 1013.2
23 12.08 СВ 5 н/о н/о +26.1 +19.7 68 +32 +32 очень
душно
1017.1 1013.5
00 13.08 СВ 4 20 км 3/0
[Cs]
+25.6 +19.0 67 +31 +31 очень
душно
1017.3 1013.7
01 13.08 С 2 н/о н/о +25.1 +18.8 68 +30 +30 душно 1017.1 1013.5
02 13.08 С 2 н/о н/о +24.5 +16.9 63 +28 +28 душно 1016.1 1012.5
03 13.08 С 3 19 км 9/0
[Ac trans Cs]
+24.3 +15.5 58 +27 +27 жарко 1016.2 1012.6
04 13.08 СВ 3 н/о н/о +24.6 +15.5 57 +28 +28 душно 1016.4 1012.8
05 13.08 СВ 6 н/о н/о +25.0 +19.1 70 +30 +30 душно 1016.6 1013.0
06 13.08 СВ 8 30 км 9/5 600 м
[Cu Sc Ac trans Cs]
+25.8 +17.4 60 +30 +30 душно 1017.1 1013.5 +23.5
07 13.08 СВ 7 н/о н/о +26.3 +18.7 63 +31 +31 душно 1017.4 1013.8
08 13.08 В 8 н/о н/о +27.3 +18.9 60 +32 +32 очень
душно
1017.9 1014.3
09 13.08 В 9 25 км 9/6 600 м
[Cu Sc Ac trans Ci sp]
+27.4 +19.5 62 +33 +33 очень
душно
1018.2 1014.6
10 13.08 В 9 н/о н/о +28.3 +18.0 54 +33 +33 очень
душно
1018.4 1014.8
11 13.08 В 9 н/о н/о +28.6 +17.6 51 +33 +33 очень
душно
1018.5 1014.9
12 13.08 В 8 25 км 4/3 600 м
[Sc diur, vesp Ac trans Ci fib]
+28.3 +18.2 54 +33 +35 очень
душно
1018.3 1014.7
13 13.08 СВ 7 н/о н/о +28.8 +17.5 50 +33 +33 очень
душно
1018.2 1014.6
14 13.08 В 7 н/о н/о +28.5 +17.6 52 +33 +33 очень
душно
1017.9 1014.3
15 13.08 В 7 25 км 3/3 600 м
[Sc diur, vesp]
+28.0 +18.7 57 +33 +35 очень
душно
1017.5 1013.9
16 13.08 В 6 н/о н/о +27.1 +19.1 62 +33 +33 очень
душно
1017.4 1013.8
17 13.08 В 6 н/о н/о +26.7 +18.6 61 +32 +32 очень
душно
1017.4 1013.8
18 13.08 В 5 25 км 5/3 600 м
[Sc diur, vesp Cc]
+26.1 +18.8 64 +31 +31 очень
душно
1017.6 1014.0 +29.0
19 13.08 В 3 н/о н/о +25.2 +18.9 68 +30 +30 душно 1018.1 1014.5
20 13.08 В 3 н/о н/о +25.1 +19.2 70 +30 +30 душно 1018.6 1015.0
21 13.08 В 1 25 км 4/3 600 м
[Cu hum Ci sp]
+24.9 +19.3 71 +30 +30 душно 1019.1 1015.5
22 13.08 СВ 2 н/о н/о +24.7 +19.1 71 +30 +30 очень
душно
1019.2 1015.6
23 13.08 штиль 0 н/о н/о +23.7 +18.8 74 +28 +28 душно 1019.4 1015.8
00 14.08 штиль 0 25 км ясно +23.0 +18.5 76 +29 +29 очень
душно
1019.3 1015.7
01 14.08 штиль 0 н/о н/о +22.5 +18.5 78 +28 +28 душно 1019.2 1015.5
02 14.08 СЗ 2 н/о н/о +22.5 +18.7 79 +28 +28 душно 1019.0 1015.3
03 14.08 СЗ 2 20 км 1/1 600 м
[Cu hum]
+21.9 +18.5 81 +27 +27 душно 1018.9 1015.2
04 14.08 З 2 н/о н/о +21.6 +18.4 82 +26 +26 душно 1019.0 1015.3
05 14.08 СЗ 2 н/о н/о +21.7 +18.3 81 +26 +26 душно 1019.1 1015.4
06 14.08 СЗ 3 20 км ясно +21.9 +18.5 81 +27 +27 душно 1019.4 1015.7 +21.5
07 14.08 З 2 н/о н/о +24.9 +18.6 68 +30 +30 душно 1019.6 1016.0
08 14.08 ЮЗ 1 н/о н/о +26.3 +18.6 63 +31 +31 душно 1019.8 1016.2
09 14.08 Ю 2 25 км 1/1 300 м
[Cu hum]
+28.0 +18.6 57 +33 +43 очень
душно
1019.8 1016.2
10 14.08 Ю 3 н/о н/о +29.0 +19.1 55 +34 +34 очень
душно
1019.7 1016.1
11 14.08 Ю 3 н/о н/о +29.8 +19.2 53 +35 +35 очень
душно
1019.1 1015.6
12 14.08 Ю 4 28 км 1/1 600 м
[Cu hum]
+29.7 +19.2 53 +35 +47 очень
душно
1018.7 1015.2
13 14.08 Ю 4 н/о н/о +30.4 +19.3 52 +36 +36 очень
душно
1018.3 1014.8
14 14.08 Ю 5 н/о н/о +30.2 +18.5 50 +35 +35 очень
душно
1017.6 1014.1
15 14.08 Ю 4 35 км 1/1 600 м
[Cu hum]
+30.6 +18.7 49 +36 +43 очень
душно
1017.3 1013.8
16 14.08 Ю 4 н/о н/о +29.5 +18.9 53 +35 +35 очень
душно
1017.2 1013.7
17 14.08 Ю 3 н/о н/о +28.4 +19.6 59 +34 +34 очень
душно
1017.0 1013.5
18 14.08 Ю 2 35 км ясно +27.5 +19.8 63 +33 +34 очень
душно
1017.3 1013.7 +31.2
19 14.08 ЮВ 2 н/о н/о +26.3 +20.4 70 +33 +33 очень
душно
1017.5 1013.9
20 14.08 штиль 0 н/о н/о +25.4 +20.6 75 +32 +32 очень
душно
1017.8 1014.2
21 14.08 штиль 0 20 км ясно +25.0 +20.7 77 +31 +31 очень
душно
1018.2 1014.6
22 14.08 З 1 н/о н/о +25.0 +20.9 78 +31 +31 очень
душно
1018.2 1014.6
23 14.08 штиль 0 н/о н/о +24.6 +21.1 81 +31 +31 очень
душно
1018.4 1014.8
00 15.08 З 2 20 км ясно +23.9 +20.6 82 +30 +30 очень
душно
1018.1 1014.5
01 15.08 З 1 н/о н/о +23.1 +20.2 84 +30 +30 очень
душно
1017.6 1014.0
02 15.08 штиль 0 н/о н/о +22.7 +20.2 86 +29 +29 очень
душно
1017.5 1013.9
03 15.08 СЗ 1 20 км ясно +22.5 +20.2 87 +29 +29 очень
душно
1017.5 1013.9
04 15.08 СЗ 2 н/о н/о +23.0 +20.5 86 +30 +30 очень
душно
1017.5 1013.9
05 15.08 СЗ 2 н/о н/о +22.2 +20.1 88 +28 +28 душно 1017.8 1014.2
06 15.08 СЗ 2 20 км ясно +22.7 +20.4 87 +29 +30 очень
душно
1018.2 1014.6 +22.1
07 15.08 СЗ 3 н/о н/о +25.4 +21.3 78 +32 +32 очень
душно
1018.4 1014.8
08 15.08 Ю 1 н/о н/о +27.8 +19.9 62 +34 +34 очень
душно
1018.6 1015.0
09 15.08 Ю 2 20 км ясно +29.4 +18.3 51 +34 +45 очень
душно
1018.5 1015.0
10 15.08 ЮВ 4 н/о н/о +30.8 +16.0 41 +34 +34 очень
душно
1018.5 1015.0
11 15.08 В 5 н/о н/о +30.6 +17.0 44 +34 +34 очень
душно
1018.3 1014.8
12 15.08 В 5 20 км ясно +31.5 +15.8 39 +34 +45 душно 1017.9 1014.4
13 15.08 ЮВ 5 н/о н/о +31.7 +15.9 39 +35 +35 очень
душно
1017.7 1014.2
14 15.08 В 5 н/о н/о +30.3 +19.4 52 +36 +36 очень
душно
1017.5 1014.0
15 15.08 В 5 20 км ясно +29.6 +19.2 54 +35 +41 очень
душно
1017.1 1013.6
16 15.08 В 5 н/о н/о +29.4 +19.3 55 +35 +35 очень
душно
1016.9 1013.4
17 15.08 В 4 н/о н/о +28.4 +19.7 59 +34 +34 очень
душно
1016.9 1013.4
18 15.08 ЮВ 3 20 км ясно +27.7 +19.4 61 +33 +34 очень
душно
1017.1 1013.5 +32.2
19 15.08 ЮВ 2 н/о н/о +26.4 +20.3 69 +33 +33 очень
душно
1017.2 1013.6
20 15.08 ЮВ 2 н/о н/о +25.7 +21.1 76 +32 +32 очень
душно
1017.6 1014.0
21 15.08 В 1 35 км ясно +25.2 +20.7 76 +31 +31 очень
душно
1018.0 1014.4
22 15.08 ЮВ 1 н/о н/о +25.9 +18.9 65 +31 +31 очень
душно
1018.1 1014.5
23 15.08 СВ 1 н/о н/о +23.2 +18.3 74 +29 +29 душно 1018.1 1014.5
00 16.08 С 2 20 км ясно +22.9 +17.4 71 +28 +28 душно 1017.9 1014.3
01 16.08 СВ 2 н/о н/о +23.0 +18.1 74 +29 +29 очень
душно
1017.5 1013.9
02 16.08 СВ 2 н/о н/о +21.7 +17.6 78 +26 +26 душно 1017.5 1013.8
03 16.08 С 3 35 км ясно +22.5 +16.1 67 +27 +27 душно 1017.6 1013.9
04 16.08 С 2 н/о н/о +22.9 +14.1 58 +26 +26 жарко 1017.6 1014.0
05 16.08 С 2 н/о н/о +21.6 +13.5 60 +24 +24 комфорт 1017.7 1014.0
06 16.08 С 2 30 км 1/1 300 м
[Sc]
+23.4 +13.8 55 +27 +27 душно 1018.2 1014.6 +21.6
07 16.08 СВ 3 н/о н/о +27.5 +14.2 44 +30 +30 жарко 1018.5 1014.9
08 16.08 СВ 3 н/о н/о +27.5 +19.8 63 +33 +33 очень
душно
1018.6 1015.0
09 16.08 В 3 30 км 1/1 300 м
[Cu hum]
+28.0 +20.5 64 +35 +43 очень
душно
1018.8 1015.2
10 16.08 В 4 н/о н/о +28.8 +20.2 60 +35 +35 очень
душно
1018.7 1015.2
11 16.08 В 4 н/о н/о +29.2 +19.1 55 +35 +35 очень
душно
1018.4 1014.9
12 16.08 В 5 30 км ясно +29.9 +19.0 52 +35 +46 очень
душно
1017.8 1014.3
13 16.08 В 5 н/о н/о +30.0 +19.5 53 +36 +36 очень
душно
1017.6 1014.1
14 16.08 В 5 н/о н/о +29.8 +19.7 55 +36 +36 очень
душно
1017.1 1013.6
15 16.08 В 5 40 км ясно +29.2 +20.6 60 +36 +42 очень
душно
1016.7 1013.2
16 16.08 В 4 н/о н/о +28.7 +21.3 64 +36 +36 очень
душно
1016.2 1012.7
17 16.08 В 4 н/о н/о +27.7 +21.6 69 +35 +35 очень
душно
1015.8 1012.3
18 16.08 В 3 30 км 1/1 300 м
[Cu hum]
+27.2 +20.7 68 +34 +34 очень
душно
1016.0 1012.4 +30.7
19 16.08 В 2 н/о н/о +26.2 +21.5 75 +33 +33 очень
душно
1016.3 1012.7
20 16.08 ЮВ 2 н/о н/о +25.5 +21.8 80 +33 +33 очень
душно
1016.8 1013.2
21 16.08 штиль 0 22 км ясно +25.4 +22.1 82 +33 +33 очень
душно
1017.0 1013.4
22 16.08 штиль 0 н/о н/о +25.2 +21.9 82 +32 +32 очень
душно
1016.8 1013.2
23 16.08 штиль 0 н/о н/о +24.3 +20.8 81 +30 +30 очень
душно
1016.8 1013.2
00 17.08 З 1 н/о н/о +23.4 +20.0 81 +30 +30 очень
душно
1016.5 1012.9
01 17.08 З 2 н/о н/о +22.4 +19.0 81 +28 +28 душно 1016.2 1012.6
02 17.08 СЗ 2 н/о н/о +22.2 +19.2 83 +28 +28 душно 1015.8 1012.2
03 17.08 З 2 28 км ясно +21.6 +18.8 84 +26 +26 душно 1015.6 1011.9
05 17.08 СЗ 2 н/о н/о +21.5 +16.7 74 +25 +25 комфорт 1015.5 1011.8
06 17.08 штиль 0 35 км ясно +23.7 +16.2 63 +27 +28 жарко 1015.7 1012.1 +21.4
07 17.08 штиль 0 н/о н/о +26.4 +16.5 55 +30 +30 душно 1016.1 1012.5
08 17.08 Ю 2 н/о н/о +28.7 +13.4 39 +30 +30 жарко 1016.3 1012.7
09 17.08 ЮВ 2 45 км ясно +30.7 +14.0 36 +32 +43 жарко 1016.2 1012.7

 

Местоположение метеостанции Аликанте аэропорт (Испания): широта 38.28 долгота -0.55 высота над уровнем моря 31 м.

В архиве по умолчанию представлена погода в Аликанте аэропорту за последнюю неделю. Архивные данные за месяц целиком и за предыдущие месяцы, начиная с января 2011 года, Вы можете получить, выбрав интересующий диапазон дат из раскрывающегося списка и нажав кнопку "Ввод!".


*Определитесь, кто Вы:
робот инопланетянин человек

Внимание! Время в таблицах - всемирное. Для получения местного времени необходимо прибавить поправку, которая равна 1 ч.

Смотрите также архив погоды в соседних городах и на ближайших метеорологических станциях:

Погода в Аликанте (Испания) (11 км)
Погода в Пиносо (Испания) (45 км)
Погода в Сан-Хавьере (Испания) (60 км)
Погода в Мурсие (Испания) (63 км)
Погода в Екле (Испания) (64 км)
Погода в Мурсия аэропорту (Испания) (70 км)
Погода в Сьеса - Парк де Бомберос (Испания) (73 км)
Погода в Хативе (Испания) (80 км)
Погода в Оливе (Испания) (82 км)
Погода в Хавеа - Аюнтамиенто (Испания) (84 км)

Пояснения к столбцам:

Ветер - указаны скорость ветра в м/с - средняя за 10 мин, порывы в срок и между сроками (в фигурных скобках) и направление, откуда дует ветер: С - северный, СВ - северо-восточный, В - восточный, ЮВ - юго-восточный, Ю - южный, ЮЗ - юго-западный, З - западный, СЗ - северо-западный.
Видимость - горизонтальная дальность видимости в метрах или километрах. При видимости от 1 до 10 км при отсутствии осадков обычно наблюдается дымка, при ухудшении видимости до 1 км и менее - туман. В сухую погоду видимость может ухудшаться дымом, пылью или мглою.
Явления - указаны атмосферные явления, наблюдавшиеся в срок или в последний час перед сроком; фигурными скобками обозначены явления, наблюдавшиеся между сроками (за 1-3 часа до срока); квадратными скобками обозначены град или гололедные отложения с указанием их диаметра в мм.
Облачность - указаны через наклонную черту общая и нижняя облачность в баллах и высота нижней границы облаков в метрах; квадратными скобками обозначены формы облаков: Ci - перистые, Cs - перисто-слоистые, Cc - перисто-кучевые, Ac - высококучевые, As - высокослоистые, Sc - слоисто-кучевые, Ns - слоисто-дождевые, Cu - кучевые, Cb - кучево-дождевые. Подробнее классификацию облаков см. в Атласе облаков (PDF).
T - Температура воздуха - температура, измеренная на высоте 2 м над землей.
Td - Температура точки росы - температура, при понижении до которой содержащийся в воздухе водяной пар достигнет насыщения.
f - Относительная влажность воздуха - влажноcть воздуха, измеренная на высоте 2 м над землей.
Te - Эффективная температура - температура, которую ощущает одетый по сезону человек в тени. Характеристика душности погоды. При расчете учитывается влияние влажности воздуха и скорости ветра на теплоощущения человека.
Tes - Эффективная температура на солнце - температура, которую ощущает человек, с поправкой на солнечный нагрев. Характеристика знойности погоды. Зависит от высоты солнца над горизонтом, облачности и скорости ветра. Ночью, в пасмурную погоду, а также при ветре 12 м/с и более поправка равна нулю.
P - Атмосферное давление - приведенное к уровню моря атмосферное давление.
Po - Атмосферное давление - измеренное на уровне метеостанции атмосферное давление.
Tmin - Минимальная температура - минимум температуры воздуха на высоте 2 м над землей.
Tmax - Максимальная температура - максимум температуры воздуха на высоте 2 м над землей.
R - Количество осадков - Количество выпавших осадков за период времени, мм. При наведении курсора мыши на число - период времени, за который выпало указанное количество осадков.
R24 - Количество осадков - Количество выпавших осадков за 24 часа, мм.
S - Снежный покров - Высота снежного покрова, см. При наведении курсора мыши на число - состояние снежного покрова и степень покрытия местности в баллах.